Regional Weather Roundup
Issued by NWS

Home | Current Version | Previous Version | Text Only | Print | Product List | Glossary Off
Versions: 1 2 3 4 5 6 7 8 9 10 11 12 13 14 15 16 17 18 19 20 21 22 23 24 25 26 27 28 29 30 31 32 33 34 35 36 37 38 39 40 41 42 43 44 45 46 47 48 49 50

000
ASUS43 KOAX 190310
RWRNE

WEATHER ROUNDUP FOR NEBRASKA
NATIONAL WEATHER SERVICE OMAHA NE
900 PM CST THU JAN 18 2018

NOTES: SATELLITE DATA IS BEING USED TO AUGMENT CLOUD COVER ABOVE
       12000 FEET.
       "FAIR" INDICATES FEW OR NO CLOUDS BELOW 12,000 FEET WITH NO
       SIGNIFICANT WEATHER AND/OR OBSTRUCTIONS TO VISIBILITY.


NEZ001>004-019>022-054>056-190400-
NEBRASKA PANHANDLE

CITY           SKY/WX    TMP DP  RH WIND       PRES   REMARKS
SCOTTSBLUFF    CLOUDY    41  31  67 NW6       29.87F
ALLIANCE       CLOUDY    34  29  82 W9        29.84F WCI  27
CHADRON        CLOUDY    33  29  85 SW8       29.81S WCI  26
GORDON         FAIR      38  30  73 W5        29.80S WCI  34
KIMBALL        CLOUDY    41  19  40 W13       29.93S
SIDNEY         CLOUDY    39  19  44 SW9       29.91F WCI  33
$$

NEZ057>060-069>072-079>082-190400-
SOUTHWEST NEBRASKA

CITY           SKY/WX    TMP DP  RH WIND       PRES   REMARKS
NORTH PLATTE   PTCLDY    30  26  85 CALM      29.88F
IMPERIAL       PTCLDY    42  24  49 SW7       29.89F
LEXINGTON      CLOUDY    32  27  83 N5        29.89F WCI  27
MCCOOK         CLOUDY    35  25  66 W7        29.89F WCI  29
OGALLALA       PTCLDY    32  27  80 W5        29.89S WCI  27
$$

NEZ005>010-023>029-035>040-094-190400-
NORTH CENTRAL NEBRASKA

CITY           SKY/WX    TMP DP  RH WIND       PRES   REMARKS
VALENTINE      CLOUDY    38  29  70 SW6       29.78F WCI  33
AINSWORTH      CLOUDY    39  32  75 SW9       29.80F WCI  33
BROKEN BOW     CLOUDY    37  28  70 CALM      29.86F
O`NEILL        CLOUDY    33  30  87 SW6       29.81F WCI  28
ORD            CLOUDY    29  26  89 CALM      29.85S
THEDFORD       MOCLDY    38  31  77 CALM      29.84F
$$

NEZ041-046>049-061>064-073>077-083>087-190400-
SOUTH CENTRAL NEBRASKA

CITY           SKY/WX    TMP DP  RH WIND       PRES   REMARKS
GRAND ISLAND   CLOUDY    35  29  78 SW9       29.88F WCI  28
AURORA         CLOUDY    32  28  83 SW7       29.88F WCI  26
HASTINGS       CLOUDY    38  25  59 SW3       29.88F
HEBRON         CLOUDY    38  26  62 SW9       29.91F WCI  32
HOLDREGE       CLOUDY    38  27  63 SW6       29.89F WCI  34
KEARNEY        CLOUDY    37  26  64 SW9       29.89F WCI  30
YORK           CLOUDY    32  28  86 SW10      29.89S WCI  24
$$

NEZ011>018-030>034-042>045-190400-
NORTHEAST NEBRASKA

CITY           SKY/WX    TMP DP  RH WIND       PRES   REMARKS
NORFOLK        CLOUDY    32  28  85 S7        29.82F WCI  26
ALBION         CLOUDY    33  28  84 CALM      29.85F
BLAIR          CLOUDY    31  24  75 S9        29.89F WCI  23
COLUMBUS       CLOUDY    33  28  81 SW5       29.87F WCI  29
FREMONT        CLOUDY    33  26  74 S10       29.89F WCI  25
TEKAMAH        CLOUDY    28  22  78 SE10      29.89F WCI  19
WAYNE          CLOUDY    31  31  96 SW6       29.83S WCI  26
$$

NEZ050>053-065>068-078-088>093-190400-
SOUTHEAST NEBRASKA

CITY           SKY/WX    TMP DP  RH WIND       PRES   REMARKS
LINCOLN        CLOUDY    31  23  72 S3        29.92F
OMAHA EPPLEY   CLOUDY    25  20  81 SE9       29.93F WCI  15
BEATRICE       CLOUDY    34  25  70 S8        29.93S WCI  27
FALLS CITY     CLOUDY    36  24  62 S12       29.96F WCI  28
NEBRASKA CITY  CLOUDY    29  24  80 S8        29.94F WCI  22
PLATTSMOUTH    CLOUDY    31  23  72 S12       29.92F WCI  22
$$

NEZ044-045-051>053-067-190400-
OMAHA AREA

CITY           SKY/WX    TMP DP  RH WIND       PRES   REMARKS
OMAHA EPPLEY   CLOUDY    25  20  81 SE9       29.93F WCI  15
BLAIR          CLOUDY    31  24  75 S9        29.89F WCI  23
FREMONT        CLOUDY    33  26  74 S10       29.89F WCI  25
MILLARD        CLOUDY    29  23  77 SE5       29.93S WCI  24
OFFUTT AFB     CLOUDY    25  19  78 SE3       29.92F
PLATTSMOUTH    CLOUDY    31  23  72 S12       29.92F WCI  22
WAHOO          FAIR      27  23  84 S6        29.91S WCI  21
$$




USA.gov is the U.S. government's official web portal to all federal, state and local government web resources and services.